Back to catalog

SL-12 DEB

LostHEO
NORAD 41678·DEBRIS·🇷🇺 Russia

Launched Oct 26, 2007 from Baikonur Cosmodrome

Loading…

Next Passes (next 24 hours)

TLE

StaleSource: Space-Track

Epoch: Sep 29, 2016, 06:55 UTC

1 41678U 07052K   16273.28858696  .00000856  00000-0  43665-2 0  9996
2 41678  65.8557 108.7922 5480019  36.8608 344.5427  4.50383187 34219

Track SL-12 DEB in real time with AllMySat

Download on the App Store